When you browse on this site, cookies collect data to enhance your experience and personalize the content and advertising you see.
Visit our Privacy Policy to learn more. By continuing to use the site, you agree to this use of cookies and data.
  • En España
  • Lista de países
  • Para 7 días
  • Temperatura del agua
  • Mapa Satelital
  • El tiempo en el mapa
  • Informadores
  • user-avatar
    Iniciar sesión

    Tiempo cada hora Ashdod

    Hoy, 21 Abril, Domingo

    Tiempo Temperatura Precipitaciones Viento Presión Humedad
    00:00 +15°C° 0.1 mm 6 mps 760 mmHg 74%
    01:00 +15°C° 0.1 mm 6 mps 760 mmHg 72%
    02:00 +15°C° 0.1 mm 7 mps 759 mmHg 71%
    03:00 +14°C° 0.2 mm 7 mps 759 mmHg 69%
    04:00 +13°C° 0.2 mm 8 mps 759 mmHg 68%
    05:00 +13°C° 0.2 mm 8 mps 759 mmHg 66%
    06:00 +15°C° 0.4 mm 9 mps 759 mmHg 63%
    07:00 +14°C° 0.4 mm 10 mps 759 mmHg 60%
    08:00 +16°C° 0.4 mm 11 mps 759 mmHg 57%
    09:00 +16°C° 0.7 mm 11 mps 759 mmHg 55%
    10:00 +16°C° 0.7 mm 10 mps 760 mmHg 54%
    11:00 +16°C° 0.7 mm 9 mps 760 mmHg 53%
    12:00 +17°C° 0.1 mm 10 mps 760 mmHg 50%
    13:00 +17°C° 0.1 mm 10 mps 760 mmHg 47%
    14:00 +17°C° 0.1 mm 10 mps 760 mmHg 45%
    15:00 +17°C° 0 mm 9 mps 760 mmHg 45%
    16:00 +16°C° 0 mm 9 mps 760 mmHg 46%
    17:00 +16°C° 0 mm 8 mps 761 mmHg 46%
    18:00 +15°C° 0 mm 7 mps 761 mmHg 49%
    19:00 +15°C° 0 mm 6 mps 761 mmHg 52%
    20:00 +14°C° 0 mm 5 mps 761 mmHg 55%
    21:00 +14°C° 0 mm 5 mps 762 mmHg 57%
    22:00 +14°C° 0 mm 4 mps 762 mmHg 58%
    23:00 +13°C° 0 mm 4 mps 762 mmHg 60%

    Mañana, 22 Abril, Lunes

    Tiempo Temperatura Precipitaciones Viento Presión Humedad
    00:00 +13°C° 0 mm 4 mps 762 mmHg 62%
    01:00 +13°C° 0 mm 4 mps 761 mmHg 63%
    02:00 +13°C° 0 mm 3 mps 761 mmHg 64%
    03:00 +13°C° 0 mm 3 mps 761 mmHg 64%
    04:00 +13°C° 0 mm 3 mps 761 mmHg 63%
    05:00 +13°C° 0 mm 3 mps 761 mmHg 63%
    06:00 +14°C° 0 mm 4 mps 761 mmHg 60%
    07:00 +15°C° 0 mm 4 mps 761 mmHg 57%
    08:00 +15°C° 0 mm 5 mps 762 mmHg 54%
    09:00 +16°C° 0.1 mm 5 mps 762 mmHg 54%
    10:00 +17°C° 0.1 mm 6 mps 762 mmHg 54%
    11:00 +17°C° 0.1 mm 6 mps 762 mmHg 54%
    12:00 +17°C° 0 mm 6 mps 762 mmHg 54%
    13:00 +19°C° 0 mm 6 mps 762 mmHg 53%
    14:00 +19°C° 0 mm 5 mps 762 mmHg 52%
    15:00 +19°C° 0 mm 5 mps 762 mmHg 53%
    16:00 +18°C° 0 mm 4 mps 762 mmHg 54%
    17:00 +18°C° 0 mm 4 mps 762 mmHg 55%
    18:00 +17°C° 0 mm 3 mps 762 mmHg 59%
    19:00 +16°C° 0 mm 2 mps 763 mmHg 63%
    20:00 +15°C° 0 mm 1 mps 763 mmHg 67%
    21:00 +15°C° 0 mm 1 mps 764 mmHg 67%
    22:00 +15°C° 0 mm 1 mps 764 mmHg 68%
    23:00 +15°C° 0 mm 1 mps 764 mmHg 69%

    Pasado mañana, 23 Abril, Martes

    Tiempo Temperatura Precipitaciones Viento Presión Humedad
    00:00 +14°C° 0 mm 1 mps 764 mmHg 69%
    01:00 +14°C° 0 mm 1 mps 764 mmHg 68%
    02:00 +14°C° 0 mm 2 mps 764 mmHg 68%
    03:00 +14°C° 0 mm 2 mps 764 mmHg 67%
    04:00 +13°C° 0 mm 2 mps 764 mmHg 66%
    05:00 +13°C° 0 mm 2 mps 764 mmHg 65%
    06:00 +15°C° 0 mm 1 mps 764 mmHg 60%
    07:00 +16°C° 0 mm 1 mps 765 mmHg 54%
    08:00 +17°C° 0 mm 0 mps 765 mmHg 48%
    09:00 +20°C° 0 mm 1 mps 765 mmHg 47%
    10:00 +20°C° 0 mm 2 mps 766 mmHg 45%
    11:00 +21°C° 0 mm 3 mps 766 mmHg 43%
    12:00 +21°C° 0 mm 4 mps 765 mmHg 44%
    13:00 +22°C° 0 mm 5 mps 765 mmHg 44%
    14:00 +22°C° 0 mm 6 mps 765 mmHg 45%
    15:00 +22°C° 0 mm 6 mps 765 mmHg 46%
    16:00 +21°C° 0 mm 6 mps 765 mmHg 47%
    17:00 +20°C° 0 mm 6 mps 765 mmHg 48%
    18:00 +19°C° 0 mm 6 mps 765 mmHg 50%
    19:00 +19°C° 0 mm 5 mps 766 mmHg 52%
    20:00 +17°C° 0 mm 5 mps 766 mmHg 54%
    21:00 +16°C° 0 mm 5 mps 766 mmHg 54%
    22:00 +17°C° 0 mm 4 mps 766 mmHg 54%
    23:00 +17°C° 0 mm 4 mps 766 mmHg 54%

    24 Abril, Miércoles

    Tiempo Temperatura Precipitaciones Viento Presión Humedad
    00:00 +17°C° 0 mm 4 mps 766 mmHg 55%
    01:00 +16°C° 0 mm 5 mps 766 mmHg 55%
    02:00 +15°C° 0 mm 5 mps 765 mmHg 56%
    03:00 +15°C° 0 mm 4 mps 765 mmHg 55%
    04:00 +16°C° 0 mm 3 mps 765 mmHg 54%
    05:00 +16°C° 0 mm 3 mps 765 mmHg 53%
    06:00 +18°C° 0 mm 3 mps 765 mmHg 48%
    07:00 +20°C° 0 mm 3 mps 766 mmHg 44%
    08:00 +23°C° 0 mm 2 mps 766 mmHg 39%
    09:00 +24°C° 0 mm 3 mps 766 mmHg 37%
    10:00 +26°C° 0 mm 3 mps 766 mmHg 34%
    11:00 +27°C° 0 mm 3 mps 766 mmHg 32%
    12:00 +27°C° 0 mm 4 mps 765 mmHg 32%
    13:00 +28°C° 0 mm 5 mps 764 mmHg 33%
    14:00 +28°C° 0 mm 6 mps 764 mmHg 33%
    15:00 +27°C° 0 mm 7 mps 764 mmHg 38%
    16:00 +26°C° 0 mm 8 mps 764 mmHg 43%
    17:00 +23°C° 0 mm 8 mps 764 mmHg 48%
    18:00 +22°C° 0 mm 7 mps 764 mmHg 49%
    19:00 +22°C° 0 mm 6 mps 764 mmHg 50%
    20:00 +21°C° 0 mm 5 mps 764 mmHg 51%
    21:00 +20°C° 0 mm 4 mps 764 mmHg 49%
    22:00 +20°C° 0 mm 4 mps 764 mmHg 47%
    23:00 +20°C° 0 mm 4 mps 764 mmHg 45%

    25 Abril, Jueves

    Tiempo Temperatura Precipitaciones Viento Presión Humedad
    00:00 +19°C° 0 mm 3 mps 764 mmHg 46%
    01:00 +19°C° 0 mm 3 mps 763 mmHg 47%
    02:00 +19°C° 0 mm 3 mps 763 mmHg 48%
    03:00 +18°C° 0 mm 3 mps 763 mmHg 50%
    04:00 +18°C° 0 mm 3 mps 763 mmHg 52%
    05:00 +18°C° 0 mm 3 mps 763 mmHg 55%
    06:00 +20°C° 0 mm 2 mps 763 mmHg 49%
    07:00 +23°C° 0 mm 2 mps 764 mmHg 43%
    08:00 +24°C° 0 mm 2 mps 764 mmHg 37%
    09:00 +26°C° 0 mm 3 mps 764 mmHg 36%
    10:00 +27°C° 0 mm 4 mps 763 mmHg 34%
    11:00 +28°C° 0 mm 5 mps 763 mmHg 33%
    12:00 +28°C° 0 mm 5 mps 763 mmHg 33%
    13:00 +28°C° 0 mm 6 mps 762 mmHg 34%
    14:00 +28°C° 0 mm 7 mps 762 mmHg 34%
    15:00 +27°C° 0 mm 7 mps 762 mmHg 36%
    16:00 +26°C° 0 mm 6 mps 762 mmHg 38%
    17:00 +26°C° 0 mm 6 mps 761 mmHg 40%
    18:00 +23°C° 0 mm 5 mps 762 mmHg 44%
    19:00 +22°C° 0 mm 4 mps 762 mmHg 48%
    20:00 +21°C° 0 mm 2 mps 762 mmHg 52%
    21:00 +20°C° 0 mm 2 mps 762 mmHg 55%
    22:00 +20°C° 0 mm 2 mps 762 mmHg 57%
    23:00 +19°C° 0 mm 2 mps 762 mmHg 60%

    26 Abril, Viernes

    Tiempo Temperatura Precipitaciones Viento Presión Humedad
    00:00 +19°C° 0 mm 2 mps 761 mmHg 63%
    01:00 +19°C° 0 mm 2 mps 761 mmHg 66%
    02:00 +18°C° 0 mm 2 mps 761 mmHg 68%
    03:00 +18°C° 0 mm 2 mps 761 mmHg 68%
    04:00 +18°C° 0 mm 2 mps 761 mmHg 67%
    05:00 +19°C° 0 mm 1 mps 761 mmHg 66%
    06:00 +21°C° 0 mm 1 mps 761 mmHg 59%
    07:00 +23°C° 0 mm 1 mps 761 mmHg 51%
    08:00 +25°C° 0 mm 1 mps 761 mmHg 44%
    09:00 +26°C° 0 mm 1 mps 761 mmHg 40%
    10:00 +27°C° 0 mm 2 mps 761 mmHg 36%
    11:00 +29°C° 0 mm 3 mps 761 mmHg 32%
    12:00 +29°C° 0 mm 4 mps 761 mmHg 32%
    13:00 +29°C° 0 mm 4 mps 760 mmHg 32%
    14:00 +30°C° 0 mm 5 mps 760 mmHg 31%
    15:00 +29°C° 0 mm 5 mps 759 mmHg 34%
    16:00 +27°C° 0 mm 6 mps 759 mmHg 37%
    17:00 +26°C° 0 mm 6 mps 759 mmHg 40%
    18:00 +25°C° 0 mm 5 mps 759 mmHg 42%
    19:00 +23°C° 0 mm 5 mps 760 mmHg 44%
    20:00 +22°C° 0 mm 4 mps 760 mmHg 46%
    21:00 +22°C° 0 mm 4 mps 760 mmHg 43%
    22:00 +22°C° 0 mm 3 mps 760 mmHg 41%
    23:00 +21°C° 0 mm 3 mps 760 mmHg 38%
    Mostrar más